Home   Weather   Santa Clara   Past weeks

Flag for Cuba Past Weather in Santa Clara, Cuba — Yesterday and Last 2 Weeks

Now
86 °F

Passing clouds.


Feels Like: 89 °F
Forecast: 69 / 92 °F
Wind: 7 mph from South

Location: Cienfuegos - Las Villas

Current Time: Apr 26, 2017 at 12:06:52 pm

Latest Report: Apr 26, 2017 at 10:51 am


Visibility: N/A

Pressure: 29.89 "Hg

Humidity: 55%

Dew Point: 68 °F

Location of Santa ClaraLocation

Past Weather in Santa Clara — Graph

°F

Santa Clara Temperature Yesterday

Maximum temperature yesterday: 90 °F (at 1:51 pm)
Minimum temperature yesterday: 70 °F (at 5:58 am)
Average temperature yesterday: 79 °F

High & Low Weather Summary for the Past Weeks

 TemperatureHumidityPressure
High91 °F (Apr 15, 1:51 pm)100% (Apr 21, 6:58 am)30.09 "Hg (Apr 21, 6:58 am)
Low63 °F (Apr 14, 6:58 am)33% (Apr 14, 2:54 pm)29.77 "Hg (Apr 23, 3:58 am)
Average78 °F72%29.97 "Hg
* Reported Apr 11 10:58 am — Apr 26 10:51 am, Santa Clara, Weather by CustomWeather, © 2017

Note: Actual official high and low records may vary slightly from our data, if they occured in-between our weather recording intervals... More about our weather records

Advertising

Santa Clara Weather History for the Previous 24 Hours

Scroll right to see more
 ConditionsComfort  
Time TempWeatherWind HumidityBarometerVisibility
10:51 am
Wed, Apr 26
86 °FPassing clouds.7 mph55%29.89 "HgN/A
8:58 am79 °FWarm.3 mph79%29.92 "HgN/A
7:58 am70 °FMild.5 mph94%29.89 "HgN/A
6:58 am68 °FMild.2 mph94%29.89 "HgN/A
5:58 am66 °FMild.5 mph100%29.86 "HgN/A
4:58 am68 °FMild.6 mph100%29.86 "HgN/A
3:58 am70 °FMild.3 mph94%29.86 "HgN/A
2:58 am72 °FMild.3 mph88%29.89 "HgN/A
1:58 am70 °FMild.5 mph94%29.89 "HgN/A
12:58 am72 °FMild.5 mph94%29.89 "HgN/A
11:58 pm
Tue, Apr 25
75 °FMild.3 mph83%29.92 "HgN/A
10:58 pm75 °FMild.2 mph89%29.89 "HgN/A
9:58 pm75 °FMild.3 mph83%29.89 "HgN/A
8:58 pm79 °FWarm.6 mph79%29.89 "HgN/A
7:57 pm81 °FWarm.8 mph74%29.86 "HgN/A
6:54 pm82 °FPassing clouds.12 mph66%29.86 "HgN/A
5:51 pm86 °FPassing clouds.13 mph55%29.83 "HgN/A
4:50 pm86 °FPassing clouds.14 mph55%29.83 "HgN/A
3:50 pm88 °FPassing clouds.16 mph55%29.86 "HgN/A
2:51 pm88 °FPassing clouds.16 mph46%29.86 "HgN/A
1:51 pm90 °FPassing clouds.10 mph49%29.89 "HgN/A
12:50 pm88 °FScattered clouds.7 mph49%29.92 "HgN/A
Weather by CustomWeather, © 2017

See weather overviewHow to use our weather pages